Location: Greenwich
(51.4790°N, 0.0090°E)
Time: 02:44:19
(UTC+01:00)

Tiangong - Pass Details

Date: 05 October 2021
Orbit: 382 x 384 km, 41.5° (Epoch: 18 October)

Event Time Altitude Azimuth Distance (km) Brightness Sun altitude
Exits shadow 05:38:31 10° 194° (SSW) 1,375 3.6 -14.6°
Drops below altitude 10° 05:39:02 10° 185° (S) 1,396 3.7 -14.5°
Sets 05:42:39 0° 141° (SE) 2,245 5.4 -14.0°
